Regional Weather Roundup
Issued by NWS Cleveland, OH

Home | Current Version | Previous Version | Text Only | Print | Product List | Glossary On
Versions: 1 2 3 4 5 6 7 8 9 10 11 12 13 14 15 16 17 18 19 20 21 22 23 24 25 26 27 28 29 30 31 32 33 34 35 36 37 38 39 40 41 42 43 44 45 46 47 48 49 50
000
ASUS41 KCLE 110712
RWRCLE
OHIO REGIONAL WEATHER ROUNDUP
NATIONAL WEATHER SERVICE WILMINGTON, OH
200 AM EST SUN DEC 11 2016

NOTE: "FAIR" INDICATES FEW OR NO CLOUDS BELOW 12,000 FEET WITH NO
SIGNIFICANT WEATHER AND/OR OBSTRUCTIONS TO VISIBILITY.

OHZ001>008-015>018-024>027-034-035-043-044-110800-
   NORTHWEST OHIO

CITY           SKY/WX    TMP DP  RH WIND       PRES   REMARKS
DEFIANCE       LGT SNOW  25  21  85 SE5       30.36F FOG     WCI  19
FINDLAY        LGT SNOW  25  21  85 S7        30.37F FOG     WCI  17
TOLEDO EXPRESS LGT SNOW  23  23 100 CALM      30.37F FOG
TOLEDO EXEC    LGT SNOW  24  23  96 S6        30.39F FOG     WCI  17
LIMA           LGT SNOW  23  22  96 S7        30.36F FOG     WCI  15
$$

OHZ009>014-019>023-028>033-038-089-110800-
   NORTHEAST OHIO

CITY           SKY/WX    TMP DP  RH WIND       PRES   REMARKS
CLE-HOPKINS    CLOUDY    27  16  63 S8        30.43S WCI  19
CLE-LAKEFRONT  CLOUDY    26  17  68 S10       30.41S WCI  16
CUY CO. ARPT   NOT AVBL
LORAIN-ELYRIA  LGT SNOW  23  18  81 S7        30.41S WCI  15
ASHTABULA      CLOUDY    23  16  74 SW7       30.41R WCI  15
AKRON-CANTON   LGT SNOW  23  18  81 SW6       30.40R VSB 1   WCI  16
WOOSTER        LGT SNOW  22  19  89 SW7       30.40F FOG     WCI  13
MANSFIELD      LGT SNOW  22  20  92 S6        30.37F FOG     WCI  14
YOUNGSTOWN     FLURRIES  23  16  74 SW5       30.40R WCI  17
$$

OHZ042-051>053-060>062-070>072-077>081-110800-
  SOUTHWEST OHIO

CITY           SKY/WX    TMP DP  RH WIND       PRES   REMARKS
CINC-COVINGTON CLOUDY    29  17  61 E6        30.35S WCI  23
CINC-LUNKEN    CLOUDY    30  21  69 NE5       30.40S WCI  25
HAMILTON       CLOUDY    30  20  66 E6        30.39F WCI  24
DAYTON         LGT SNOW  24  22  91 E8        30.36F FOG     WCI  15
WRIGHT-PAT AFB FLURRIES  26  23  89 E3        30.38F
DAYTON GENERAL CLOUDY    27  19  72 E6        30.35F WCI  20
WILMINGTON     CLOUDY    26  19  74 NE5       30.38S WCI  20
$$

OHZ036-037-039>041-045>050-054>059-063>069-073>076-082>088-110800-
  CENTRAL AND SOUTHEAST OHIO

CITY           SKY/WX    TMP DP  RH WIND       PRES   REMARKS
COLUMBUS       LGT SNOW  25  23  92 CALM      30.41S VSB 1
OSU AIRPORT    LGT SNOW  24  23  96 CALM      30.40S FOG
BOLTON FIELD   LGT SNOW  26  20  79 CALM      30.41S
RICKENBACK AFB   N/A     26  20  76 NE3       30.41R
NEWARK         LGT SNOW  24  20  84 CALM      30.41S VSB 1
MARION         LGT SNOW  23  20  88 S6        30.38F FOG     WCI  16
LANCASTER      CLOUDY    27  21  78 CALM      30.41R
ZANESVILLE     LGT SNOW  25  18  74 E3        30.43R
NEW PHILLY     LGT SNOW  24  19  81 CALM      30.44R
$$



USA.gov is the U.S. government's official web portal to all federal, state and local government web resources and services.